Tracking 23610 objects as of 20-Sep-2021
HD Live streaming from Space Station
objects crossing your sky now

STARLINK-2590

Track STARLINK-2590 now!
10-day predictions
STARLINK-2590 is classified as:


NORAD ID: 48397
Int'l Code: 2021-038AW
Perigee: 552.7 km
Apogee: 556.0 km
Inclination: 53.1 °
Period: 95.6 minutes
Semi major axis: 6925 km
RCS: Unknown
Launch date: May 4, 2021
Source: United States (US)
Launch site: AIR FORCE EASTERN TEST RANGE (AFETR)
aabbcc
Your satellite tracking list
Your tracking list is empty




NASA's NSSDC Master Catalog

Two Line Element Set (TLE):
1 48397U 21038AW  21263.25001157 -.00032284  00000-0 -21574-2 0  9992
2 48397  53.0540 105.4252 0002373  89.3706  82.3715 15.06412619 21999
Source of the keplerian elements: AFSPC